STARLINK-33768, 63454

Orbit data source: Space-Track

STARLINK-33768, 63454 is a payload satellite owned by SpaceX/Seattle (US) in LEO that was launched on Fri, 04 Apr 2025 UTC via an FALCON 9 launch vehicle from the Air Force Western Test Range (AFWTR). Payload-class satellites include a variety of spacecraft equipped with specific instruments for various scientific and technological missions. These include communications satellites like Starlink; space stations such as the ISS; scientific satellites like the Hubble; Earth observation satellites from companies like Planet Labs, Umbra, and HawkEye 360; GPS; miniature CubeSats for education and research; and military/defense satellites.

Loading next visibility...
Identifier
63454, 2025-069X
Orbit
LEO
Country
Flag of USUS
Related business
Manufacturer
SpaceX/Seattle
Mission
Operational Commercial Communications
Bus & Motor
STARLINK V2MO, Unknown motor
Mass
575 kg wet, ~530 kg dry
Launch date (UTC)
2025-04-04 (8 months ago)
Launch vehicle
FALCON 9
Launch site
Air Force Western Test Range (AFWTR)
Object type
Payload
Rocket body
Debris
Shape & HBR
Box + 2 Pan, 17.7 m
Radar Cross Section
36.964 m², Large (>1 m²)

Expand to show TLE details & history
Last TLE update: 22 hours ago

TLE from 22 hours ago
0 STARLINK-33768
1 63454U 25069X   25348.76807746  .00001023  00000-0  46738-4 0  9999
2 63454  53.1572 176.8566 0001028  96.8882 263.2236 15.30142700 40403
Epoch: 2025-12-14T18:26Z
TLE epoch observation values (Epoch: 2025-12-14T18:26:01.892Z)
Latitude
Longitude
176.67246°
Altitude
476.369 km
Speed
7.629 km/s
True Right ascension
11h 47m 25s
True Declination
0° 00' 00"
Sunlit
Object was in daylight at epoch
Visualization orbit readout
Latitude
Unknown
Longitude
Unknown
Altitude
Unknown
Speed
Unknown
Apparent Right ascension
Unknown
Apparent Declination
Unknown
Sunlit
N/A
Visualization observer readout
Local Sidereal Time
15:09:06
Azimuth
Unknown
Elevation
Unknown
Doppler factor
Unknown
Orbital elements
Apogee altitude
476.348 km
Perigee altitude
474.938 km
Semi-major axis
6,853.78 km
Eccentricity
0.0001
Inclination
53.1572°
RAAN
176.8566°
Arg. of periapsis
96.8882°
True anomaly
263.2119°
Mean anomaly
263.2236°
Eccentric anomaly
263.21775°
Mean motion
3.82515 °/min
Orbital period
94.11 mins
BSTAR
0.000046738
Loading maneuver chart data...
Computing Atmospheric mass density...
Loading historical data...
Loading historical data...
Loading historical data...
Loading historical data...
Loading historical data...
Loading historical data...
Loading historical data...

Documentation

Showing up to 5 results
|